Volver al catálogo

IUS DEB

ActivoHEO
NORAD 26076·DEBRIS·🇺🇸 United States

Lanzado Jul 23, 1999 desde Cape Canaveral Space Force Station

Loading…

Próximos Pases (próximas 24 horas)

TLE

ActualizadoSource: Space-Track

Época: Sep 6, 2026, 03:32 UTC

1 26076U 99040E   26249.14763407  .00001186  00000-0  37046-3 0  9997
2 26076  28.4092  71.2039 4312651 193.7234 149.3608  6.70735093533519

Sigue IUS DEB en tiempo real con AllMySat

Download on the App Store